#timestamp,LO_Frequency,Hit,StdDev 
1528387215.5,286046999.2,N
1528387235.3,286046999.2,N
1528387255.1,286046996.6,N
1528387275.9,286046996.5,N
1528387295.7,286046997.2,N
1528387315.5,286046997.3,N
1528387335.4,286046997.8,N
1528387355.2,286046995.3,N
1528387375.1,286046993.3,Y
1528387376.0,286046993.3,P
1528387395.8,286046995.1,N
1528387415.6,286046999.6,N
1528387435.5,286046997.9,N
1528387455.3,286046995.2,N
1528387475.2,286046995.6,N
1528387495.3,286046995.9,N
1528387515.2,286046996.1,N
1528387535.0,286046995.8,N
1528387535.9,286046995.8,N
1528387555.8,286046995.1,N
1528387575.6,286046994.9,Y
1528387595.4,286046998.1,P
1528387615.3,286047000.7,N
1528387635.1,286047000.4,N
1528387655.9,286047000.8,N
1528387675.7,286047000.0,N
1528387695.5,286047000.3,N
1528387715.4,286047000.3,N
1528387735.2,286047000.5,N
1528387755.0,286047000.6,N
1528387755.9,286047000.6,N
1528387775.8,286047001.1,N
1528387795.6,286046999.6,N
1528387815.4,286046997.1,N
1528387835.3,286046995.5,Y
1528387855.1,286046997.5,P
1528387875.9,286046996.7,N
1528387895.7,286046998.8,N
1528387915.5,286046997.3,N
1528387935.4,286046998.0,N
1528387955.2,286046997.2,N
1528387975.1,286046996.9,Y
1528387976.0,286046996.9,P
1528387995.8,286046998.1,P
1528388015.6,286046998.3,P
1528388035.5,286046998.5,N
1528388055.3,286046998.2,Y
1528388075.1,286047002.3,P
1528388095.9,286047002.6,N
1528388115.7,286047001.4,N
1528388135.6,286047002.0,N
1528388155.4,286046999.7,N
1528388175.2,286047000.0,N
1528388195.1,286047002.1,N
1528388196.0,286047002.1,N
1528388215.8,286046999.7,N
1528388235.6,286047000.9,N
1528388255.5,286047002.5,N
1528388275.3,286047002.7,N
1528388295.2,286047002.3,N
1528388315.9,286047002.7,N
1528388335.7,286046999.7,N
1528388355.6,286047002.4,N
1528388375.4,286047002.5,N
1528388395.2,286047002.1,N
1528388415.1,286047002.1,N
1528388416.0,286047002.1,N
1528388435.8,286047002.7,N
1528388455.7,286046999.7,N
1528388475.5,286047002.4,N
1528388495.3,286047003.9,N
1528388515.2,286047001.4,N
1528388535.0,286047001.6,N
1528388535.9,286047001.6,N
1528388555.7,286047001.7,N
1528388575.6,286047004.4,Y
1528388595.4,286047000.3,P
1528388615.3,286047000.3,N
1528388635.1,286047000.7,N
1528388655.8,286046998.5,N
1528388675.7,286047000.4,N
1528388695.5,286047000.9,N
1528388715.3,286047000.8,N
1528388735.2,286046999.0,N
1528388755.0,286046997.1,Y
1528388755.9,286046997.1,P
1528388775.8,286046996.6,N
1528388795.6,286046999.5,N
1528388815.4,286046999.2,N
1528388835.3,286046999.1,N
1528388855.1,286046996.6,N
1528388875.9,286046996.6,N
1528388895.7,286046997.3,N
1528388915.5,286046996.6,N
1528388935.4,286046996.7,N
1528388955.2,286046997.5,N
1528388975.0,286046997.1,N
1528388975.9,286046997.1,N
1528388995.8,286046999.5,N
1528389015.6,286046999.3,N
1528389035.5,286046999.1,N
1528389055.3,286046998.4,N
1528389075.1,286046999.5,N
1528389095.9,286046998.7,N
1528389115.7,286046998.6,N
1528389135.5,286046998.9,N
1528389155.4,286046996.5,N
1528389175.2,286046999.3,N
1528389195.1,286046996.6,N
1528389196.0,286046996.6,N
1528389215.8,286046999.0,N
1528389235.6,286046998.1,N
1528389255.5,286046999.1,N
1528389275.3,286046998.8,N
1528389295.1,286047001.0,N
1528389315.9,286046998.7,N
1528389335.7,286046999.0,N
1528389355.6,286046999.6,N
1528389375.4,286046996.9,N
1528389395.2,286046996.5,N
1528389415.1,286046997.3,N
1528389416.0,286046997.3,N
1528389435.8,286046996.9,N
1528389455.7,286046997.4,N
1528389475.5,286046997.7,N
1528389495.3,286046997.1,N
1528389515.2,286046996.9,N
1528389535.0,286046996.5,Y
1528389535.9,286046996.5,P
1528389555.7,286046998.8,N
1528389575.6,286046998.5,N
1528389595.4,286047000.8,N
1528389615.3,286046998.7,N
1528389635.1,286047000.8,N
1528389636.0,286047000.8,N
1528389655.8,286046998.5,N
1528389675.7,286046998.2,N
1528389695.5,286047000.6,N
1528389715.3,286047001.1,N
1528389735.2,286046998.7,N
1528389755.0,286046999.0,N
1528389755.9,286046999.0,N
1528389775.8,286046998.5,N
1528389795.6,286047001.1,N
1528389815.4,286047000.5,N
1528389835.3,286047000.5,N
1528389855.1,286047000.7,N
1528389875.8,286047001.2,N
1528389895.7,286047000.6,N
1528389915.5,286046998.1,N
1528389935.4,286047001.1,N
1528389955.2,286047001.2,N
1528389975.0,286047001.0,N
1528389975.9,286047001.0,N
1528389995.8,286047001.1,N
1528390015.6,286047001.0,N
1528390035.4,286047000.7,N
1528390085.3,286047002.8,E
1528390095.2,286047000.8,N
1528390115.1,286046997.1,P
1528390116.0,286046997.1,N
1528390135.8,286046999.6,N
1528390155.6,286046999.3,N
1528390175.5,286046997.0,N
1528390195.3,286046999.2,N
1528390215.2,286046997.8,N
1528390235.9,286046997.4,N
1528390255.7,286046997.7,N
1528390275.6,286046997.8,N
1528390295.4,286046997.3,N
1528390315.2,286046997.5,N
1528390335.1,286046996.9,N
1528390336.0,286046996.9,N
1528390355.8,286046998.5,N
1528390375.7,286046999.3,N
1528390395.5,286046999.6,N
1528390415.3,286046998.8,N
1528390435.2,286046998.7,N
1528390455.9,286046998.9,N
1528390475.7,286046998.9,N
1528390495.6,286046999.4,N
1528390515.4,286046999.1,N
1528390535.3,286046996.9,N
1528390555.1,286046997.7,N
1528390556.0,286046997.7,N
1528390575.8,286046997.0,N
1528390595.7,286046997.1,N
1528390615.5,286046997.2,N
1528390635.3,286046997.2,N
1528390655.2,286046999.6,N
1528390675.0,286046999.2,N
1528390675.9,286046999.2,N
1528390695.8,286046998.2,N
1528390715.6,286046998.3,N
1528390735.4,286047001.2,N
1528390755.3,286047001.2,N
1528390775.1,286046999.0,N
1528390795.8,286046998.6,N
